{"data":{"norad_id":55376,"intl_designator":"2023-013AX","name":"STARLINK-5586","alt_names":[],"object_type":"PAYLOAD","status":"ACTIVE","operator":null,"country":"US","launch_date":"2023-01-26","launch_site_code":"AFETR","launch_vehicle":null,"mission":null,"orbit_class":"UNKNOWN","rcs_meters":null,"size_class":null,"mass_kg":null,"dimensions":null,"purposes":["comms"],"wikipedia_slug":null,"has_3d_model":false,"image_url":null,"decayed_at":null,"tle_current":{"epoch":"2026-09-20T08:39:56.301120Z","epoch_age_seconds":108662,"freshness":"FRESH","line1":"1 55376U 23013AX  26263.36106830 -.00000044  00000+0  79393-5 0  9995","line2":"2 55376  43.0009 269.4767 0001348 264.0865  95.9833 15.27576298201611","mean_motion":15.27576298,"eccentricity":0.0001348,"inclination_deg":43.0009,"raan_deg":269.4767,"arg_perigee_deg":264.0865,"mean_anomaly_deg":95.9833,"bstar":7.9393e-6,"rev_number":20161,"period_min":94.266977164109,"perigee_km":482.1352918018,"apogee_km":483.98507056185,"semimajor_km":6861.1971811818,"source":"CELESTRAK","updated_at":"2026-09-21T09:00:33.210622Z"}}}